RH
89 88 90 92 92 93 93 94 93 92 94 96 95 95 94 93 93 94 96 97 93 95 94 85 76 69 68 64 49 35 30 31 39 60 64 33 17 28 29 30 27 19 28 25 17 22 21 22 25 24 25 23 18 16 14 11 11 10 14 17 18 17 14 11 7 7 9 7 8 8 7 8 7 6 6 5 7 4 17 39 38 37 43 47 52 53 59 63
91 90 91 91 92 91 91 93 93 93 95 95 95 93 93 91 88 88 90 92 94 92 83 73 64 55 51 48 34 28 37 47 63 70 43 7 9 30 31 29 29 20 23 22 18 24 21 18 21 23 25 22 16 13 13 10 10 11 14 17 16 13 11 8 6 6 7 7 7 7 7 8 7 7 6 5 9 3 18 46 46 44 52 55 55 55 62 65
92 92 92 91 92 92 92 94 94 95 95 95 94 90 91 88 83 84 84 87 90 84 73 63 57 50 43 38 25 28 54 67 66 50 19 1 7 21 31 33 30 25 21 14 14 24 21 16 19 21 23 21 15 11 10 10 10 11 12 16 14 9 8 7 6 6 7 7 7 8 7 7 6 6 7 6 9 4 19 52 57 56 60 60 59 58 65 72
93 93 93 91 91 92 94 94 94 95 95 95 94 91 90 86 83 82 80 83 84 78 68 58 56 52 43 35 20 32 68 68 45 29 16 10 9 14 28 33 28 24 20 11 12 21 19 17 18 18 20 18 14 10 9 10 10 10 10 13 12 8 9 7 6 7 8 8 7 8 6 7 6 5 7 7 9 7 20 51 60 62 62 59 62 64 73 81
93 95 95 93 91 92 94 94 95 96 96 95 94 94 91 87 85 80 78 80 80 78 69 61 64 60 46 28 19 43 69 54 31 27 24 21 19 20 27 30 23 18 16 12 13 18 19 20 18 16 17 16 13 10 8 8 9 10 9 10 9 8 8 6 6 7 8 8 7 8 7 7 5 6 7 6 10 7 23 51 53 58 62 59 65 72 80 83
92 94 95 93 91 93 94 93 94 95 96 95 95 95 93 88 82 80 82 80 79 79 73 70 74 73 51 21 26 58 64 40 26 28 27 25 26 24 21 19 16 17 17 14 16 18 21 22 19 17 16 15 13 12 9 6 8 9 9 8 8 8 7 6 6 7 8 7 7 7 6 6 5 8 7 6 9 4 24 49 47 53 59 59 69 78 84 84
92 94 95 93 92 94 94 92 92 93 94 96 95 94 93 89 81 77 78 80 78 78 83 83 86 87 54 20 36 67 66 41 20 19 24 22 21 17 11 12 14 18 20 18 18 21 26 25 18 17 16 14 13 12 9 6 7 8 9 7 7 7 7 6 6 7 7 7 7 7 6 6 6 8 7 6 7 4 23 46 44 50 55 62 78 82 84 84
92 94 96 94 93 95 96 93 93 93 94 95 95 96 94 93 88 71 66 78 78 77 90 94 97 94 65 49 57 61 61 43 18 18 23 15 14 12 10 15 17 19 22 21 19 22 28 24 17 17 16 14 12 10 9 8 7 7 7 7 7 7 6 6 6 7 7 7 7 6 7 7 7 7 6 7 7 4 22 45 43 49 62 72 83 85 84 84
93 94 96 95 93 95 95 94 93 93 93 93 94 97 95 95 90 67 58 72 75 80 93 97 101 88 69 78 77 58 45 28 19 23 19 11 11 10 12 17 17 19 25 26 24 26 27 21 16 16 16 14 11 9 8 8 8 7 6 6 6 6 6 5 6 7 7 7 6 6 7 7 7 6 6 6 6 3 15 40 43 50 72 77 82 85 82 85
94 93 94 95 94 94 93 93 94 92 93 93 94 96 95 96 84 60 50 56 68 87 96 97 99 82 68 75 70 55 36 21 23 20 11 8 9 11 15 16 14 18 27 28 26 26 24 19 14 13 14 13 11 10 8 8 8 6 6 7 6 6 6 6 6 6 7 7 6 7 7 7 6 6 8 5 6 4 6 32 47 58 76 76 81 84 80 85
92 92 93 94 94 94 93 94 95 93 93 93 95 97 96 96 77 51 42 41 50 73 90 97 97 86 78 73 66 50 25 21 27 20 16 13 9 12 15 14 11 19 27 24 23 22 20 16 11 11 11 10 9 8 8 7 7 6 6 7 7 7 7 7 8 7 7 7 7 7 7 8 7 6 8 5 6 4 4 37 61 67 75 76 81 83 81 87
92 90 91 93 94 95 94 95 95 94 93 93 97 97 96 94 71 43 32 28 34 59 87 101 96 88 84 78 66 37 10 17 26 25 26 18 11 10 13 15 10 16 22 19 20 18 15 13 10 10 10 8 8 7 8 7 7 6 6 7 7 7 8 8 9 8 7 7 7 7 8 9 7 6 7 4 7 3 10 51 70 65 71 77 81 81 85 90
93 92 92 94 95 96 96 96 95 94 94 94 95 95 96 87 58 32 25 24 33 62 91 102 94 85 87 79 47 14 4 11 16 23 26 19 15 12 14 17 11 13 18 18 18 14 12 10 9 10 9 9 9 7 8 8 8 7 6 7 8 9 9 7 7 7 7 7 6 7 12 15 8 6 6 3 7 1 14 57 65 60 69 73 76 79 86 90
94 94 93 95 97 96 96 96 95 95 95 94 94 96 94 71 39 25 28 32 47 75 96 101 94 84 88 73 27 5 11 11 11 21 24 18 17 16 17 18 13 14 17 17 16 12 12 9 8 10 9 10 10 8 9 8 9 8 7 9 10 13 12 7 7 7 6 7 6 6 13 17 8 7 6 3 8 0 17 58 60 57 67 64 68 77 83 85
93 94 93 96 97 96 96 97 96 95 94 93 90 87 75 45 26 33 42 45 55 78 95 96 88 84 83 60 24 12 14 12 15 20 21 19 17 16 17 18 16 14 15 15 15 13 13 11 11 12 11 10 9 10 11 11 11 9 11 16 14 13 12 8 7 7 6 6 6 7 12 14 8 7 6 3 6 1 19 57 60 56 62 61 69 77 80 82
92 93 95 96 97 96 96 96 96 95 96 93 81 68 48 27 30 49 55 52 53 69 89 91 81 82 74 43 21 18 14 12 14 16 19 19 17 16 17 17 15 13 14 14 14 14 12 11 12 11 11 10 10 12 13 15 17 12 13 21 18 13 12 9 7 6 5 6 6 8 11 11 8 7 6 4 5 3 13 46 59 56 59 64 73 77 77 81
93 93 96 96 95 95 95 96 96 95 96 90 72 46 25 27 50 63 57 51 53 64 78 71 62 72 63 34 23 20 15 13 10 12 16 17 17 17 16 16 14 14 15 14 14 14 12 12 13 13 12 11 12 12 16 21 24 21 16 18 17 13 12 10 8 6 5 6 6 7 9 9 9 7 6 4 5 6 9 31 54 54 57 66 70 73 77 80
93 93 95 94 93 94 94 96 96 95 97 90 66 31 16 39 67 70 59 55 60 69 71 58 58 71 55 36 35 25 13 13 9 9 13 16 16 15 15 15 15 16 17 17 16 15 14 13 13 16 16 15 15 14 21 23 21 24 21 19 18 13 12 11 8 7 5 7 8 9 10 9 9 7 7 7 5 10 10 23 50 56 58 66 65 69 75 77
93 92 94 93 93 94 95 98 96 96 98 85 51 21 32 68 83 78 68 64 70 72 66 59 63 62 36 24 33 25 14 13 9 8 11 15 16 15 15 14 15 17 19 22 21 17 16 16 16 19 20 19 17 14 17 17 12 15 16 17 17 14 13 10 7 7 6 8 9 11 12 10 10 8 9 10 8 11 10 16 44 58 58 61 61 66 71 73
92 92 93 94 94 94 96 98 97 98 98 91 68 48 61 82 84 83 76 68 68 60 48 46 51 44 21 14 21 19 14 11 8 7 10 14 15 15 15 14 16 19 22 26 26 20 17 22 24 22 22 19 16 14 13 12 11 11 12 13 13 14 14 10 7 7 7 10 11 12 13 11 11 11 10 11 9 11 11 11 32 54 56 56 57 60 65 67
92 91 92 93 94 94 96 97 97 98 97 99 95 75 64 57 52 60 63 59 58 53 46 39 37 36 24 15 15 14 13 12 10 7 9 13 13 15 16 15 20 25 25 23 23 21 19 27 29 20 17 15 13 17 17 16 15 13 14 14 15 16 15 11 8 7 8 12 14 12 13 13 14 13 11 12 9 10 13 11 22 46 51 49 54 54 55 60
91 92 91 92 95 93 95 97 95 96 94 94 95 78 53 37 31 30 33 39 41 43 48 41 33 32 25 19 17 14 15 17 15 8 8 12 11 13 16 15 21 27 26 22 25 27 25 27 24 16 14 14 12 16 19 19 17 17 16 15 18 18 17 15 11 8 8 12 17 15 14 18 19 16 13 12 10 9 12 11 19 42 49 44 48 51 51 57
93 92 90 94 95 92 97 96 85 80 76 75 83 71 40 26 26 22 25 36 34 29 36 41 42 38 29 22 16 14 17 18 18 12 8 11 11 11 14 16 19 23 24 25 30 33 31 24 18 14 13 14 16 16 18 19 20 22 19 17 21 18 17 21 17 9 8 13 20 18 17 23 21 17 16 14 13 10 9 8 11 31 46 44 43 46 48 54
94 91 93 95 92 95 96 81 64 55 49 57 63 40 15 16 23 24 32 42 35 24 21 25 33 36 30 20 12 13 16 15 15 15 10 11 12 11 13 15 16 21 23 21 25 28 25 18 13 14 12 13 17 18 20 21 24 28 24 21 23 19 16 19 16 11 14 21 23 17 22 30 23 16 17 13 13 12 9 8 8 16 28 35 42 45 46 51
94 93 96 94 95 98 85 65 63 59 52 60 56 28 14 21 25 26 39 54 48 30 19 15 18 24 22 15 10 11 13 14 12 12 12 11 12 12 12 13 15 20 21 18 20 22 19 16 14 15 13 12 13 14 22 26 26 30 28 21 20 19 16 15 13 14 21 27 23 16 24 39 31 18 16 14 13 12 9 10 8 7 11 22 39 46 48 48
93 94 95 95 98 93 73 65 74 68 53 50 43 29 25 28 30 30 46 69 60 32 19 16 14 17 17 12 9 9 14 16 10 9 14 12 11 12 12 13 14 17 17 15 18 18 15 14 13 15 14 13 13 13 18 25 25 27 25 18 16 16 15 15 12 14 22 26 24 16 20 36 34 21 19 18 13 12 18 21 15 15 23 30 36 41 47 51
94 94 95 96 95 93 84 76 72 59 45 39 32 27 25 28 32 34 55 80 61 27 17 15 13 13 14 11 7 12 19 17 10 9 13 14 11 11 13 15 15 16 13 13 19 20 15 14 15 16 15 16 20 20 17 19 24 26 20 14 14 13 13 14 11 13 20 22 24 21 15 22 27 24 19 13 13 25 37 38 32 33 41 43 41 40 44 47
94 93 95 97 96 97 94 88 83 68 44 31 29 27 26 30 32 42 76 92 55 20 14 13 13 12 10 10 9 12 16 13 11 10 10 14 13 12 15 15 14 15 11 14 24 22 16 18 18 16 17 16 18 19 15 14 18 21 15 11 13 12 11 13 12 17 20 20 25 26 16 17 28 31 20 11 22 43 50 45 40 42 45 46 48 49 47 47
95 95 96 99 92 79 78 89 89 65 32 22 29 31 28 30 36 54 85 83 40 14 16 14 15 15 12 13 13 12 11 10 11 9 9 15 14 13 16 15 15 16 12 13 21 19 15 16 15 13 17 17 15 14 14 14 15 14 11 11 12 10 11 16 20 21 23 29 33 27 18 20 30 33 29 34 46 52 51 46 43 46 49 51 55 58 60 64
96 96 95 100 90 71 77 88 72 48 38 40 40 34 32 41 53 69 80 64 31 15 18 17 16 17 15 15 17 15 12 12 10 6 10 16 16 13 13 13 13 17 17 13 14 14 11 11 12 12 14 15 15 14 13 12 12 11 10 11 13 16 19 25 29 22 24 38 35 23 21 21 24 34 45 54 56 51 52 54 53 55 57 59 60 61 67 74
98 98 98 102 95 88 90 80 58 49 55 56 47 39 45 57 69 81 71 38 21 21 19 19 18 16 17 18 19 17 13 14 10 6 10 15 18 16 15 17 17 19 23 20 16 13 9 10 12 11 12 13 13 14 13 11 10 10 13 14 18 27 29 28 30 25 27 42 33 16 17 16 22 44 55 54 53 55 59 62 64 67 67 65 62 63 69 76
98 97 100 99 98 101 88 64 51 51 54 55 52 48 58 68 68 75 62 26 20 27 20 20 19 14 18 19 18 17 15 17 13 7 8 14 21 20 18 23 24 25 31 29 24 19 13 13 12 12 14 13 14 17 16 12 11 12 15 20 25 30 31 31 34 33 34 39 31 17 15 19 33 50 52 51 55 59 61 61 65 72 75 73 67 66 72 76
96 99 102 96 101 102 69 40 37 40 50 61 61 57 67 82 70 53 47 32 24 22 15 18 18 13 17 18 17 17 16 18 14 9 8 11 19 21 17 19 19 25 34 34 29 24 19 16 11 12 15 13 15 21 22 19 16 15 16 25 33 30 31 36 36 36 34 30 27 24 19 26 47 55 50 53 56 54 57 61 68 76 79 79 75 72 76 79
98 98 90 80 86 82 50 33 31 37 58 70 69 69 76 88 72 40 33 32 21 14 12 15 15 13 16 16 16 16 16 18 13 10 12 12 19 24 20 17 15 19 26 29 31 27 28 30 21 14 15 15 16 17 20 19 16 16 13 19 31 31 29 34 33 32 34 38 38 30 25 37 58 62 54 54 54 51 56 64 71 77 77 79 79 79 82 85
92 80 74 76 76 58 38 31 28 43 74 78 71 79 84 82 66 43 32 24 14 12 11 11 12 14 16 14 14 13 15 19 14 11 16 16 20 23 19 16 14 15 20 29 32 23 26 34 22 13 14 14 15 15 13 15 19 19 13 13 26 30 26 29 32 30 35 51 50 34 42 57 59 59 56 55 56 56 62 71 76 79 79 81 84 84 86 88
92 74 75 87 78 57 38 23 25 51 79 82 79 84 78 64 50 38 25 13 11 12 10 12 13 14 17 15 13 12 14 18 16 16 18 16 17 16 15 14 10 10 17 28 31 22 27 34 18 10 14 12 13 15 10 13 23 23 18 18 20 19 19 25 35 33 33 50 45 32 54 69 59 59 58 57 65 67 70 78 81 84 85 85 89 90 88 89
98 86 82 80 71 66 45 21 35 64 75 83 93 85 61 43 36 26 14 10 12 10 11 18 17 13 17 18 14 12 14 17 16 18 21 19 18 14 10 11 10 9 12 19 25 23 29 35 21 12 16 13 11 13 11 10 16 20 20 21 18 14 15 20 32 35 34 45 39 33 58 70 68 73 65 62 77 81 80 83 84 88 91 90 92 91 89 91
98 90 85 69 60 67 50 32 52 70 71 84 94 79 54 39 32 20 11 12 12 9 13 19 16 13 15 18 18 13 14 20 19 19 22 21 23 24 17 12 11 8 6 10 19 22 24 31 28 15 13 15 10 11 17 13 10 14 15 16 25 29 25 21 27 33 41 46 37 42 70 79 81 88 80 79 91 90 88 89 89 92 93 93 92 89 89 89
94 90 85 58 48 62 55 47 59 64 69 84 86 70 49 35 27 16 10 13 11 11 15 13 11 15 15 14 17 15 15 24 23 21 27 30 34 37 30 23 19 15 13 13 17 24 29 36 40 25 12 14 13 17 27 22 13 13 12 14 24 31 31 29 28 31 44 49 37 46 79 91 91 91 88 91 94 91 92 92 91 94 93 94 93 90 90 87
85 90 86 53 47 61 52 49 62 65 69 73 65 51 35 23 18 11 10 12 11 12 16 15 16 22 21 14 14 15 16 23 25 23 32 39 41 40 34 32 32 28 26 24 23 28 29 34 47 39 19 17 20 21 25 23 18 17 17 18 18 21 25 29 32 29 32 44 48 57 81 94 92 88 88 93 95 92 93 92 91 91 89 91 91 90 89 82
79 94 86 50 45 54 50 58 69 65 62 56 45 35 27 20 14 11 13 13 11 11 13 15 18 22 25 22 19 17 17 20 24 30 43 49 50 47 38 33 33 31 35 42 42 39 34 36 50 49 32 27 26 17 13 15 19 25 29 29 28 30 28 29 38 34 24 37 54 69 89 97 90 87 89 93 93 91 90 90 91 90 88 89 88 87 84 78
84 97 80 51 48 49 54 67 65 55 53 46 34 27 21 18 14 14 16 13 10 10 10 13 17 18 20 22 20 19 21 21 26 41 54 55 54 50 38 32 32 32 42 53 52 47 44 44 52 49 34 28 23 15 16 18 23 36 42 42 49 57 52 46 49 47 44 50 58 71 91 98 90 88 92 92 90 89 90 89 89 89 87 85 84 81 77 74
85 93 73 52 47 44 56 68 59 51 48 37 28 22 17 16 14 13 15 13 9 10 13 16 16 15 17 19 18 20 26 26 30 44 50 49 50 45 36 37 38 37 49 60 58 54 48 46 49 45 37 37 29 20 24 27 31 47 55 53 58 65 65 58 49 54 66 67 64 75 91 94 90 89 90 89 86 86 89 89 87 86 83 80 78 76 72 71
84 95 84 64 45 41 59 68 61 59 50 35 30 26 20 18 16 16 19 17 11 13 19 19 16 15 15 17 18 19 25 31 34 39 43 47 49 41 37 43 45 47 57 63 62 57 53 56 58 52 50 56 49 41 49 54 50 56 64 64 60 59 66 66 57 65 77 65 62 80 92 93 91 87 86 85 81 81 83 82 81 81 81 79 76 74 71 71
90 97 93 76 51 49 68 70 67 71 61 45 40 35 28 22 18 19 22 19 14 17 24 23 18 17 14 16 20 17 18 27 35 40 43 48 46 38 39 47 50 53 56 57 57 55 58 68 70 65 67 72 67 64 75 80 70 63 67 70 66 64 70 72 70 80 82 70 74 90 95 97 94 86 84 83 82 83 80 77 77 77 77 77 75 74 74 73
96 92 90 82 62 62 75 67 63 75 70 55 47 39 34 29 22 17 19 21 17 16 22 23 18 18 18 22 28 25 17 20 27 35 45 51 49 40 39 43 46 49 51 53 54 55 65 76 77 76 81 85 82 76 74 75 74 74 75 74 74 74 73 74 84 92 86 81 91 94 91 98 98 91 89 87 85 86 83 80 81 80 77 74 73 74 74 74
95 87 82 82 73 74 80 69 61 70 70 58 47 39 36 33 27 22 20 21 20 18 21 22 18 21 25 27 36 37 29 26 29 32 41 51 51 45 37 35 40 46 54 58 55 60 78 87 83 79 77 75 74 70 70 71 70 74 80 81 81 82 81 85 93 92 83 84 91 89 88 96 100 97 94 89 86 87 85 84 84 82 79 75 73 74 76 76
93 87 78 77 79 80 80 72 64 63 61 51 42 39 38 34 32 33 25 18 18 19 26 31 24 20 22 25 37 41 32 38 50 46 45 53 58 59 52 40 35 39 55 68 65 68 85 91 87 85 79 66 59 59 66 71 71 73 79 83 84 84 87 92 93 88 86 90 91 89 93 98 100 97 92 87 85 85 84 83 80 80 80 79 78 78 79 80
92 89 80 76 79 77 71 63 56 53 50 43 41 40 38 36 35 32 25 25 28 21 25 39 33 20 18 19 33 45 40 50 65 57 49 56 64 69 68 56 42 36 49 73 76 71 77 82 84 87 83 73 66 64 65 70 76 79 78 77 80 84 86 89 90 87 90 95 95 94 98 99 98 95 89 85 82 79 80 79 79 80 82 82 82 81 83 83
94 93 86 83 83 78 69 56 46 45 41 37 41 39 34 37 37 28 21 31 43 33 24 35 34 23 22 21 32 49 51 58 69 57 48 57 60 58 58 56 51 43 44 61 71 68 70 76 77 73 73 77 78 73 71 76 84 87 86 81 80 85 90 90 90 89 90 96 96 95 99 101 94 88 85 84 81 80 82 82 84 86 84 83 83 83 84 84
88 83 83 93 94 78 60 46 39 42 42 38 42 38 32 33 32 30 27 24 33 36 28 32 37 33 33 33 37 46 44 46 54 46 39 50 53 49 47 45 46 50 49 52 57 59 64 74 74 63 67 81 83 79 78 80 81 87 95 94 88 90 96 95 94 92 92 95 94 92 98 102 94 85 85 86 84 86 88 88 89 89 87 87 88 87 86 84
87 79 79 93 96 69 43 36 37 39 40 37 37 35 34 30 23 31 37 23 19 26 26 30 38 39 43 47 43 39 33 31 34 30 26 31 32 30 32 31 30 38 48 53 54 52 52 62 65 60 68 82 83 82 81 79 83 92 97 95 90 89 93 95 94 91 88 92 96 97 99 98 91 86 89 91 91 93 95 94 94 94 91 91 92 92 90 86
Wind_Speed
11 11 11 12 12 12 12 13 13 13 13 13 13 13 12 12 12 13 14 14 15 15 15 16 15 16 16 17 18 18 20 20 20 14 12 17 11 8 10 9 5 4 9 9 9 7 7 8 10 13 12 9 4 3 7 6 5 4 3 4 5 5 5 6 3 1 3 1 4 3 4 4 3 4 3 2 3 4 3 7 6 9 7 9 16 23 26 25
11 11 12 12 12 12 12 13 13 13 14 13 13 13 13 12 12 13 14 15 15 15 15 16 16 16 16 17 17 18 21 21 18 17 21 22 15 14 15 13 9 5 8 11 13 12 8 7 10 12 7 4 4 5 5 4 5 4 3 4 5 6 7 8 5 2 4 3 3 3 4 4 3 4 3 3 6 4 3 6 7 9 8 11 18 21 23 24
11 11 12 12 12 12 12 13 13 14 14 14 14 14 14 13 13 13 14 15 15 15 15 15 16 16 17 17 17 18 19 17 11 13 21 19 17 20 18 17 14 10 10 12 16 15 13 12 14 11 6 5 4 6 6 4 5 4 4 4 6 6 7 9 7 4 7 6 5 6 6 5 5 4 2 4 9 8 4 7 6 7 7 9 11 15 20 21
11 12 12 12 12 13 13 13 14 14 14 14 14 14 14 14 13 13 14 15 15 15 14 14 15 16 17 17 16 16 14 10 4 7 11 8 14 19 18 17 14 12 12 13 16 15 15 15 14 10 6 5 5 7 6 5 5 4 5 6 6 6 8 9 5 6 7 7 5 5 6 6 6 2 2 4 7 8 2 8 11 9 9 10 10 13 18 20
12 12 12 12 13 13 13 14 14 15 15 15 15 15 14 14 13 14 14 15 15 15 15 14 15 17 17 16 15 13 9 3 1 2 3 5 10 14 15 15 13 12 13 14 14 13 15 14 10 8 6 5 5 5 6 8 6 3 6 9 8 8 8 9 4 5 5 6 4 2 3 5 6 3 2 2 4 5 2 9 12 13 12 11 12 14 15 15
12 13 13 13 13 14 14 14 14 15 15 15 15 15 15 14 14 14 14 14 14 14 15 14 16 17 17 16 11 6 3 1 3 1 8 9 11 12 12 13 12 12 14 13 10 10 11 10 9 6 4 4 6 6 6 8 7 3 6 7 8 9 8 9 5 3 5 5 3 1 3 4 5 4 3 1 5 6 5 12 11 12 12 14 15 14 13 12
13 13 13 13 14 14 14 14 14 15 15 16 16 16 15 15 14 14 14 14 14 14 15 15 16 17 17 15 7 1 1 6 12 6 8 10 12 11 9 10 12 14 14 11 9 8 8 8 8 5 4 5 6 8 8 8 8 6 6 7 8 9 8 8 6 1 5 3 1 1 4 5 5 3 4 4 7 7 5 12 10 10 11 15 15 13 12 11
13 14 14 14 14 15 15 15 15 15 15 16 17 16 16 15 14 14 14 14 14 14 15 14 15 15 15 13 5 1 2 10 15 10 10 11 11 9 7 10 13 16 14 12 11 9 8 8 8 5 5 6 7 9 8 8 8 7 7 8 8 8 8 7 6 4 1 1 2 2 5 6 6 3 3 6 9 7 5 12 9 11 13 13 12 11 11 9
14 14 14 14 15 15 16 16 16 15 16 16 17 17 16 15 14 15 14 14 14 14 14 14 14 14 11 7 3 2 6 10 10 10 11 11 10 9 8 10 16 17 13 13 13 12 9 6 8 7 6 7 9 9 6 5 5 8 9 8 7 8 8 7 7 6 3 2 3 3 6 7 7 5 5 7 9 9 3 11 10 12 14 11 10 10 10 9
14 14 14 15 15 16 16 16 16 16 16 17 17 18 17 16 15 15 15 14 14 14 15 14 13 11 8 5 3 3 7 8 10 11 9 10 10 10 10 11 18 18 11 12 14 13 10 7 8 7 6 7 7 8 7 6 5 5 6 6 8 8 6 6 6 5 4 4 5 4 6 6 6 3 4 7 9 10 5 10 11 11 12 11 10 9 9 9
13 14 14 15 15 16 16 17 17 16 16 17 18 19 18 16 16 16 16 15 15 14 14 13 11 8 6 6 2 4 7 9 11 8 6 9 12 13 13 13 18 19 12 11 13 17 15 14 10 5 5 3 4 7 6 6 7 5 3 3 7 7 5 6 6 7 4 2 4 3 5 6 6 4 5 7 7 10 5 9 11 10 10 11 10 9 6 7
13 13 14 15 15 16 16 17 17 17 17 18 19 19 18 17 16 16 17 16 15 14 13 10 8 4 5 5 6 13 11 8 9 9 9 9 12 15 14 14 18 20 16 11 13 20 20 18 11 4 4 2 3 4 5 7 7 6 5 4 6 6 5 7 6 7 5 2 4 3 4 5 5 7 10 9 7 9 3 12 12 10 10 9 9 8 5 6
13 13 14 15 15 16 17 17 18 18 18 19 19 19 19 18 16 16 17 16 14 12 10 8 5 3 3 3 11 20 16 11 10 12 14 8 10 13 12 15 17 19 19 16 15 15 15 16 8 4 4 4 3 3 6 9 5 5 4 3 5 5 6 9 7 8 7 5 6 5 2 6 7 8 10 9 8 10 5 12 12 11 9 8 8 7 6 7
13 14 14 15 15 16 17 17 18 19 19 19 19 20 20 18 17 16 15 13 11 7 6 6 4 4 3 6 15 19 15 16 16 14 15 10 12 13 13 17 17 17 20 21 17 10 9 11 5 3 5 4 4 6 8 7 4 4 3 2 2 2 7 9 7 9 9 8 8 7 3 7 8 8 11 8 9 11 7 13 12 10 8 7 7 5 7 8
13 14 14 15 15 16 17 18 19 19 20 20 20 21 21 18 15 13 11 10 8 5 5 4 5 5 2 8 16 15 10 13 14 16 15 14 16 13 15 18 18 18 18 15 13 10 9 9 5 1 3 4 5 6 5 4 3 2 1 4 2 4 9 9 8 11 10 8 9 8 2 7 9 10 11 9 10 11 7 14 12 11 10 7 6 5 6 6
14 14 14 14 15 16 17 18 19 20 20 21 21 21 20 17 13 10 9 8 6 3 3 2 9 9 2 5 10 9 9 10 10 14 14 17 18 13 16 16 14 15 12 7 8 9 7 4 2 1 3 4 4 4 4 4 4 2 4 4 4 5 7 7 8 13 14 7 8 9 2 5 9 8 8 10 13 12 8 13 12 11 10 8 5 5 6 6
13 14 14 15 15 16 17 18 19 20 21 21 22 22 18 12 9 10 8 6 3 2 7 4 6 8 5 7 7 6 11 13 12 14 15 18 20 16 15 10 8 9 7 5 7 6 3 0 1 2 2 3 3 3 4 4 5 3 4 5 5 7 7 6 6 9 15 7 6 7 4 6 10 9 9 10 7 11 8 11 14 11 9 8 6 6 7 7
14 15 15 15 15 16 17 18 19 20 21 22 22 21 15 8 8 9 5 2 1 2 7 7 4 3 5 8 7 8 12 16 16 16 15 17 20 17 14 8 4 6 5 3 6 4 2 2 3 2 3 3 4 3 4 5 5 5 5 4 5 8 7 7 5 5 11 7 7 8 5 9 12 9 9 9 4 11 8 9 13 13 12 10 8 8 8 8
14 15 14 15 16 16 17 18 19 20 21 22 21 16 7 3 4 4 3 3 3 2 3 5 6 2 3 7 12 14 14 18 17 15 16 17 17 15 13 11 6 5 5 2 4 5 3 1 3 3 4 4 6 6 6 7 9 9 7 5 6 6 6 8 5 8 10 7 6 8 7 8 9 8 7 7 4 6 6 8 11 12 12 10 9 8 8 9
14 15 15 16 16 17 18 18 19 20 20 20 20 12 2 1 1 2 2 5 7 8 5 5 9 5 8 6 8 14 15 17 14 11 16 18 14 11 8 9 6 5 5 4 5 5 4 3 4 5 6 7 8 8 9 10 10 10 8 4 4 4 6 7 4 10 9 6 4 6 5 5 6 8 8 5 4 1 3 5 8 11 11 9 10 10 9 9
14 15 16 16 17 17 17 19 20 20 18 18 16 7 2 3 2 1 3 7 13 16 14 10 12 12 14 12 9 8 11 10 10 11 17 18 12 7 4 6 6 5 6 6 6 4 5 5 6 8 9 10 10 9 11 12 11 9 7 5 6 4 6 8 3 9 6 5 4 4 3 4 6 7 10 7 4 3 5 5 6 11 12 10 11 11 10 7
14 15 16 17 17 17 18 20 20 19 20 17 10 5 6 6 6 7 3 5 10 17 17 15 14 15 18 22 21 9 9 6 9 10 16 17 10 5 5 6 6 5 6 7 4 3 4 6 10 11 10 10 11 10 10 12 11 8 5 4 6 4 5 8 1 5 3 4 4 4 5 4 6 6 9 9 8 6 5 6 8 12 12 10 12 12 9 9
14 15 17 17 17 18 19 21 21 21 21 16 9 9 8 7 10 15 7 3 8 11 14 14 14 14 16 20 19 13 8 7 9 8 16 17 8 7 7 6 7 6 7 8 6 4 5 8 12 12 10 10 11 10 9 9 7 4 2 2 4 4 4 5 3 2 1 3 4 5 3 3 5 5 7 7 8 6 6 7 5 11 14 13 14 13 12 13
15 15 17 16 18 19 19 22 22 19 18 15 16 17 13 11 13 14 5 2 7 7 11 15 14 11 15 16 11 10 5 5 7 8 18 16 7 7 7 7 8 7 6 10 10 8 8 10 11 11 11 11 9 9 8 5 2 1 1 1 3 5 5 6 7 4 2 3 2 5 2 3 3 5 7 7 7 5 6 7 6 5 10 12 14 14 14 15
15 16 17 17 18 19 21 21 16 14 12 11 16 15 10 10 11 8 4 1 4 5 7 12 11 10 18 18 10 9 4 4 6 6 18 17 9 7 6 6 6 7 9 12 11 9 11 10 10 12 14 13 11 9 6 5 1 3 0 3 4 7 9 9 11 7 4 5 2 4 1 5 4 5 7 7 6 8 7 7 10 8 3 3 9 11 12 14
15 16 17 17 17 20 19 11 8 14 12 9 11 9 5 4 6 6 3 2 3 3 4 7 8 12 17 14 8 7 5 6 9 7 16 18 14 8 6 4 4 7 9 10 7 5 8 8 8 11 14 12 10 7 3 7 4 2 2 4 5 8 9 9 11 6 1 3 4 2 2 4 5 4 6 6 5 6 5 7 7 3 6 7 3 1 6 8
15 16 16 16 16 17 12 7 13 16 8 6 10 6 3 5 5 4 1 1 3 3 5 3 4 11 14 10 9 7 3 6 8 9 13 18 15 8 6 5 4 7 7 6 5 4 7 9 8 7 9 6 3 2 2 6 5 2 5 7 8 9 9 9 10 6 3 4 3 3 2 1 4 4 8 8 4 2 7 10 7 7 10 10 9 6 3 7
16 16 16 16 15 14 11 14 17 11 8 9 16 9 5 7 5 3 2 0 2 4 5 1 2 8 8 8 11 7 5 5 7 8 12 19 15 6 6 8 5 7 8 5 4 5 7 10 9 7 5 5 3 4 4 4 4 4 6 9 9 6 6 8 6 3 3 2 4 5 3 2 4 4 8 8 2 6 7 8 9 10 12 11 10 9 4 5
16 16 16 16 17 13 10 14 14 9 10 12 15 14 11 7 3 1 2 1 2 2 3 2 3 4 5 7 9 8 9 5 5 6 10 16 15 6 4 9 8 7 9 7 6 6 5 8 10 8 5 5 3 4 5 4 5 6 8 9 8 5 5 3 2 2 4 3 3 5 0 1 5 4 5 4 4 5 5 5 9 10 11 10 8 9 9 8
16 16 16 16 16 11 9 13 16 10 15 15 15 16 11 5 1 2 1 2 3 2 3 2 3 6 8 8 8 9 10 7 3 7 8 9 11 6 1 5 7 6 6 7 8 9 7 5 6 5 3 6 6 5 5 6 7 7 8 7 5 5 3 2 3 4 4 1 4 4 1 2 3 5 4 4 3 3 3 5 7 8 10 9 8 8 9 8
16 17 16 15 14 10 9 10 10 6 12 16 15 10 5 2 1 2 2 2 3 2 3 2 4 9 11 9 7 7 10 9 3 9 8 5 7 5 2 3 4 3 4 3 6 10 9 5 4 1 1 4 6 4 3 6 7 4 3 1 1 4 4 4 5 4 1 4 5 4 5 4 2 3 3 3 4 5 6 6 7 9 9 8 8 8 8 8
18 18 17 16 15 13 12 9 4 4 11 16 12 4 1 2 1 2 2 1 1 4 5 6 8 10 11 11 8 8 9 8 4 9 8 6 5 5 4 4 3 1 3 2 3 8 7 4 4 2 2 5 6 2 2 5 3 2 2 3 3 2 3 2 2 1 2 5 5 5 5 4 2 1 2 5 6 7 7 7 9 11 11 10 10 9 8 8
20 21 21 19 16 18 21 17 12 10 13 16 9 1 1 2 1 4 5 3 1 6 5 8 11 10 11 9 7 10 9 6 6 8 7 8 6 5 7 8 5 4 3 4 3 4 4 4 5 3 2 4 6 4 0 4 2 5 3 3 4 2 0 1 3 2 4 5 5 4 2 1 1 1 4 5 6 7 8 9 11 12 13 12 12 11 9 9
23 24 24 22 19 22 24 21 18 12 12 13 5 1 1 1 2 5 7 6 4 7 6 10 15 12 13 10 8 11 9 6 9 8 6 7 5 4 7 9 9 5 3 3 2 3 3 4 5 4 3 5 5 5 5 5 4 5 5 5 5 4 3 3 3 3 4 3 2 0 2 2 3 2 3 4 6 7 9 11 12 12 11 11 12 12 10 8
24 22 21 20 20 21 21 19 15 9 8 8 1 1 2 2 2 2 4 7 6 7 6 9 11 7 9 10 9 12 10 6 10 9 5 6 5 4 5 7 10 8 3 2 3 2 3 4 6 8 7 9 8 7 7 4 3 3 5 5 4 5 5 4 4 4 4 1 3 1 2 1 3 2 2 6 8 10 12 13 12 12 11 11 11 10 9 7
22 19 15 16 18 15 12 14 13 9 7 4 1 2 3 2 3 2 1 5 5 5 2 4 3 1 2 3 3 8 10 7 9 9 5 6 7 6 6 5 9 10 5 4 2 2 2 4 4 6 7 10 11 9 8 6 3 2 3 5 6 7 5 2 4 3 4 4 2 2 3 1 1 1 5 9 11 13 13 12 11 11 11 12 10 8 8 8
18 15 10 14 17 12 7 12 15 11 7 2 1 3 3 3 7 6 3 6 7 6 2 3 2 1 2 3 3 6 8 5 8 7 4 6 6 7 9 7 9 11 9 6 2 1 4 3 2 3 4 7 13 10 8 9 7 2 2 4 5 5 5 3 1 2 3 2 3 3 5 1 1 1 5 8 11 11 11 10 10 11 12 12 10 8 9 9
14 11 9 14 15 11 9 16 18 11 4 2 3 4 3 5 9 6 4 6 8 6 4 3 2 4 3 3 4 6 7 4 6 6 3 4 3 2 4 4 10 13 13 11 5 2 3 2 3 4 5 5 8 7 4 6 7 6 4 2 3 3 4 2 2 1 2 2 2 3 5 2 1 1 3 7 9 8 8 9 10 12 12 11 10 10 10 10
11 6 5 8 10 14 15 19 16 6 2 2 3 3 3 7 9 3 5 3 6 4 3 3 2 2 3 3 2 5 9 5 3 3 2 1 0 2 4 4 2 4 3 6 5 3 4 2 2 5 4 3 4 3 2 4 5 5 4 3 1 4 4 2 3 3 3 3 2 2 3 1 1 2 4 6 6 6 7 7 8 10 10 9 8 9 8 9
6 2 4 4 9 20 21 17 10 3 2 3 3 4 6 7 4 3 6 4 4 3 2 4 5 5 4 4 4 1 6 5 3 3 2 1 1 1 7 9 5 5 7 5 4 1 2 3 2 5 4 1 3 3 3 2 2 3 3 3 2 1 3 3 3 2 4 3 3 3 2 3 2 3 5 5 5 4 5 6 8 9 10 9 8 7 8 9
3 2 5 2 14 26 20 10 4 3 3 3 4 6 8 6 1 6 5 2 2 1 1 2 4 3 3 4 6 5 3 5 2 3 3 3 3 3 7 9 7 6 7 7 7 4 1 2 4 2 4 2 2 4 5 2 4 5 2 1 1 2 1 2 3 2 3 3 3 4 3 1 3 3 4 6 5 4 5 7 9 9 9 9 8 8 9 11
2 2 5 1 18 24 12 3 3 3 3 4 6 7 6 4 1 4 3 1 1 2 1 1 4 4 2 4 6 5 4 3 2 3 3 3 5 3 6 10 9 8 6 2 3 3 2 2 3 1 1 3 4 1 2 5 9 12 8 4 3 3 3 3 1 3 1 2 1 4 4 1 1 2 3 4 3 5 7 8 8 8 7 7 7 8 10 13
1 2 9 6 16 19 5 2 4 4 3 5 9 9 3 2 2 3 2 0 1 1 1 1 2 3 2 4 5 5 5 4 3 5 3 3 5 4 6 10 10 7 5 1 3 5 4 2 3 2 3 4 7 6 8 11 10 9 7 6 5 3 1 3 2 1 2 2 1 3 2 1 1 2 3 3 4 6 8 8 9 8 6 7 9 9 11 14
1 1 6 7 13 15 4 2 4 4 4 6 9 7 4 4 3 2 2 2 1 2 2 3 3 2 2 4 5 4 4 3 5 6 4 3 3 5 7 10 8 6 4 1 1 2 2 2 3 3 3 4 5 6 7 9 8 5 4 6 6 5 3 1 1 3 4 3 1 4 2 1 2 3 4 6 8 9 9 9 10 9 8 9 10 11 13 13
2 1 1 5 8 9 3 2 2 2 4 5 5 4 3 2 2 4 5 5 2 4 2 2 4 3 3 5 4 3 2 2 4 5 5 3 2 4 8 9 6 4 3 1 0 1 2 2 2 4 2 1 1 1 1 2 4 3 5 8 8 8 7 3 2 4 3 3 3 4 3 3 5 6 9 9 10 11 11 11 11 11 11 10 10 11 12 12
1 1 0 2 3 4 2 3 3 2 3 3 2 3 3 2 1 3 4 4 4 5 3 3 3 2 3 5 5 5 4 3 3 2 4 4 1 2 5 6 5 4 4 6 5 2 4 4 3 4 5 5 4 3 2 1 3 3 6 8 9 8 7 5 4 2 2 2 4 2 5 8 6 7 9 9 9 10 11 12 12 11 11 11 11 11 12 11
1 1 1 1 1 2 3 4 3 2 4 4 1 2 4 3 1 3 3 3 4 5 3 3 3 1 1 3 4 4 5 7 8 3 5 5 3 3 3 3 5 5 6 7 8 3 5 3 4 4 2 3 6 5 3 5 7 7 7 8 9 9 8 8 6 1 2 4 2 1 5 10 7 8 9 8 9 10 10 11 10 10 11 11 11 12 12 12
0 2 2 1 1 2 2 4 5 5 8 7 1 1 3 2 3 2 2 2 2 3 2 2 4 2 1 2 5 1 2 5 8 5 6 5 3 4 5 4 4 5 8 7 7 3 5 1 2 4 2 2 2 6 8 8 9 10 10 9 10 10 10 10 7 4 4 5 3 3 7 10 8 8 10 9 9 10 9 9 9 9 10 11 12 12 12 12
0 2 3 2 2 1 3 6 7 6 7 4 1 2 3 1 4 2 1 2 2 0 3 0 4 4 7 3 4 3 0 3 4 3 4 3 2 3 3 3 4 5 8 5 2 2 3 1 2 3 3 2 5 7 10 12 12 12 12 11 11 11 11 11 10 9 9 9 8 10 12 11 8 8 9 9 9 9 8 8 9 11 11 11 11 12 12 12
0 1 1 2 2 3 5 7 5 4 2 3 3 2 1 2 1 2 2 2 1 2 1 0 1 3 7 5 6 5 3 6 6 2 1 3 3 2 1 1 1 4 3 4 2 0 1 1 3 4 2 3 8 11 12 13 14 13 12 11 10 9 10 10 10 9 7 8 9 11 11 8 7 7 9 10 9 9 10 10 10 10 11 11 11 12 12 12
2 4 3 2 3 4 5 4 3 2 2 2 1 2 2 3 3 2 3 3 3 1 2 5 7 6 8 9 10 6 4 7 7 1 1 2 2 2 2 4 4 1 1 2 1 2 3 2 2 2 3 3 6 10 11 11 13 13 11 11 9 8 8 8 8 8 6 4 6 8 7 5 5 7 9 10 10 11 11 11 9 9 9 10 11 11 11 12
4 5 4 1 2 6 4 3 3 4 1 1 2 1 0 2 2 4 3 1 1 2 1 7 8 4 6 8 8 6 6 7 6 4 4 3 2 1 0 2 4 3 2 3 2 1 3 3 2 3 4 3 6 10 9 6 7 7 6 8 6 6 7 7 8 10 10 5 3 5 4 4 5 7 9 9 10 11 11 9 8 7 8 9 10 11 11 11
Wind_Direction
325 326 326 328 328 328 328 327 327 326 326 326 325 326 326 330 330 329 328 325 324 323 323 324 325 326 326 325 327 333 332 326 318 308 253 247 252 243 244 245 259 217 215 222 208 202 201 208 233 241 245 247 231 230 255 259 243 222 192 216 246 246 243 258 263 166 146 92 62 47 358 37 33 355 357 6 325 249 106 85 94 90 97 114 129 136 137 145
323 323 324 325 326 326 326 325 325 324 324 325 325 325 325 328 328 328 326 324 324 323 324 326 326 328 327 326 331 338 336 325 310 285 259 254 245 236 240 245 249 220 208 208 203 208 206 199 219 228 230 233 219 215 227 232 229 214 197 215 229 237 245 268 287 103 90 57 42 35 44 45 6 356 344 350 331 300 94 82 74 82 85 100 122 127 130 141
320 322 323 323 325 324 325 324 324 324 323 324 323 322 324 325 326 325 323 323 323 323 325 325 327 328 328 328 335 345 335 319 301 268 267 261 231 225 233 244 244 233 230 210 197 205 214 211 211 212 213 228 229 221 214 207 222 208 206 238 238 244 260 278 304 53 69 46 21 12 24 7 339 348 1 2 335 330 82 118 101 89 100 108 120 119 117 106
319 321 321 322 323 323 324 324 323 324 323 323 322 322 322 322 323 321 321 321 321 323 322 321 325 326 326 328 336 346 334 309 281 249 267 248 208 213 220 233 238 233 234 216 205 217 238 239 220 204 207 227 231 229 222 203 206 193 201 233 251 266 278 283 320 56 72 62 38 353 351 330 311 315 54 27 333 324 54 136 136 131 134 131 122 105 94 81
319 319 321 321 321 322 323 323 323 323 323 322 321 321 319 319 320 319 318 318 319 321 320 321 322 324 324 328 338 344 337 309 304 220 195 150 177 199 211 224 232 229 221 212 219 243 263 267 245 211 208 231 237 235 231 210 194 195 224 231 245 258 272 281 324 66 86 80 66 326 314 294 301 329 59 76 269 277 139 146 146 147 150 136 116 98 91 92
318 319 320 320 321 321 321 322 322 322 322 321 319 319 317 316 316 316 316 315 318 318 320 322 322 325 324 328 339 339 338 274 323 95 148 149 165 188 207 218 223 216 205 206 225 258 267 263 250 223 204 231 246 247 243 220 194 211 250 240 240 244 256 277 297 88 99 82 76 336 307 301 327 345 350 40 252 267 151 154 155 152 146 119 109 107 108 118
316 318 319 320 320 319 320 320 320 321 320 320 318 316 315 315 314 313 314 316 317 316 319 322 323 326 328 336 343 245 227 263 282 270 179 170 176 196 213 216 212 195 187 200 218 242 256 246 238 224 211 228 244 251 250 233 208 216 254 256 254 255 253 266 278 123 101 94 138 311 316 311 329 346 340 317 275 292 130 154 155 144 127 105 108 117 129 142
315 316 318 319 319 319 319 318 319 319 318 318 315 314 313 314 315 312 314 316 315 316 318 320 324 327 335 347 346 234 226 253 268 252 206 192 191 206 214 202 195 182 179 200 214 228 247 240 233 232 220 226 238 242 245 242 222 214 241 254 259 269 267 271 282 286 348 155 199 264 280 273 278 275 286 277 275 296 134 149 144 119 104 98 112 123 142 154
313 314 316 317 318 318 318 317 317 317 317 316 313 311 310 311 314 313 314 313 312 314 314 319 321 324 338 340 320 292 256 250 246 218 201 202 202 201 200 191 183 176 179 206 224 240 249 233 228 235 231 242 252 252 263 267 228 207 224 242 250 261 270 279 280 268 248 205 182 228 252 250 247 240 249 250 262 283 177 142 132 117 111 112 123 137 157 149
312 313 315 315 317 317 316 316 315 315 315 313 310 308 308 309 311 310 310 309 310 311 312 316 315 320 331 302 261 273 257 213 186 193 196 200 202 188 181 185 181 175 184 212 227 242 248 235 226 232 243 255 265 269 281 275 248 219 221 242 254 260 265 276 285 265 225 201 192 216 253 261 253 230 243 243 237 259 241 139 128 119 123 133 141 159 166 144
310 312 314 314 316 315 315 315 313 315 313 311 309 306 306 307 307 307 309 310 311 311 311 312 311 314 307 288 252 245 234 171 167 191 197 195 199 188 175 183 184 178 194 220 227 237 244 247 246 239 238 272 299 277 279 276 281 290 296 279 267 279 294 295 301 291 287 217 190 219 263 271 274 251 242 247 234 245 234 124 122 126 136 143 151 166 161 141
309 310 313 313 315 315 315 314 314 313 311 309 306 304 304 305 306 307 311 315 314 311 311 312 315 302 283 288 236 235 235 191 182 182 183 196 203 196 178 183 190 185 198 221 231 234 238 248 265 274 246 337 319 270 293 298 298 290 294 306 290 307 295 272 271 267 277 239 182 199 279 279 261 241 239 244 248 255 194 120 131 141 144 148 157 165 151 143
310 310 312 313 314 315 314 314 314 312 310 308 305 304 303 302 306 310 315 315 311 309 309 305 296 267 278 273 236 245 254 250 230 179 171 190 206 202 188 191 198 194 205 227 242 244 246 254 278 324 314 328 287 305 319 299 292 269 265 273 290 322 280 247 238 234 232 225 192 170 261 276 252 239 244 234 226 244 185 132 147 149 150 160 163 162 149 149
308 311 312 313 315 314 314 314 313 311 308 306 304 304 302 303 308 313 315 309 306 310 306 299 258 223 245 254 262 266 264 266 256 196 168 179 198 206 209 205 203 205 215 233 256 293 297 285 312 358 329 313 282 327 327 301 290 281 288 275 238 278 270 248 225 218 213 215 187 157 214 261 261 253 258 249 224 234 174 140 154 151 158 166 156 158 158 161
307 311 310 313 315 315 315 314 313 310 308 306 305 304 302 305 310 312 313 302 300 291 285 291 214 201 277 267 279 281 249 258 249 199 180 188 197 205 215 213 205 214 227 239 270 310 317 320 1 25 296 288 282 301 303 300 287 245 240 298 238 195 259 260 234 213 203 205 161 137 203 259 267 253 251 253 232 234 162 145 158 153 161 166 156 162 161 162
307 309 310 313 315 315 315 314 312 309 308 308 305 303 303 308 309 309 307 290 300 283 214 236 205 201 286 269 281 283 229 234 217 194 195 196 203 205 205 210 204 216 237 244 271 297 307 332 8 262 270 276 274 258 273 303 294 239 177 241 241 218 255 269 251 209 193 195 145 133 158 253 272 260 259 262 224 210 157 144 152 150 159 165 168 167 157 156
307 308 310 313 313 315 315 313 312 308 310 310 307 306 307 311 301 295 294 271 298 188 192 222 204 196 257 280 295 273 211 211 207 205 202 197 210 205 191 204 199 205 236 239 243 269 295 161 165 273 259 249 255 235 250 266 272 277 206 219 238 239 247 266 273 198 178 171 137 138 160 234 266 276 289 293 201 168 145 141 147 150 159 167 171 167 161 164
308 308 310 312 313 315 314 314 312 310 313 311 308 310 309 307 286 280 279 233 102 190 227 257 249 185 256 259 252 232 197 196 208 212 199 198 215 206 182 187 188 187 208 238 234 219 202 179 166 229 254 241 249 223 204 222 235 238 216 208 238 250 249 254 272 180 164 150 141 150 185 237 260 273 289 315 105 133 140 140 146 155 161 166 169 166 169 174
308 309 310 312 313 315 315 314 311 312 315 312 314 320 313 298 289 263 245 211 148 177 229 220 203 176 293 238 218 228 208 186 194 206 193 193 215 216 191 181 181 191 188 179 211 197 175 178 183 216 247 233 227 221 214 229 236 242 239 206 224 253 260 253 221 170 164 149 150 164 192 236 264 281 291 322 35 124 157 150 147 158 162 164 165 165 174 179
308 309 311 313 314 317 315 313 311 313 316 318 326 337 338 248 3 115 217 230 216 238 267 209 197 235 294 283 223 218 200 178 181 200 194 187 201 223 202 174 175 199 197 178 193 194 164 178 211 212 223 231 229 226 234 251 252 259 276 269 269 277 276 281 193 160 149 130 179 187 188 247 286 299 296 314 12 42 217 184 154 156 162 165 165 170 180 182
308 310 311 314 315 316 315 313 310 310 313 316 323 326 283 298 320 112 203 223 225 234 256 243 213 236 260 275 273 194 159 170 185 191 192 185 186 208 194 172 177 195 214 210 201 189 163 183 225 221 219 229 235 227 228 251 263 270 287 305 312 294 284 303 196 161 120 105 198 165 103 318 310 306 302 313 330 256 225 209 170 161 167 169 167 175 179 170
308 310 311 313 315 316 316 312 307 306 306 302 297 262 266 286 305 323 296 243 240 224 236 244 229 242 249 261 266 211 142 182 193 182 182 176 174 185 176 179 191 196 205 220 218 180 184 213 224 220 221 226 235 236 222 234 249 262 281 291 297 290 308 321 228 162 109 131 194 115 86 305 290 290 298 307 298 270 236 212 178 165 171 173 174 177 169 155
308 309 313 315 317 319 316 310 304 299 293 280 242 225 256 283 312 327 328 278 278 233 225 229 226 241 247 258 254 202 171 190 184 183 172 167 176 189 184 184 203 210 191 208 217 172 195 224 216 214 226 229 234 241 228 227 241 240 239 263 273 280 308 313 293 239 190 162 155 124 125 258 268 284 289 275 267 277 271 251 204 171 177 181 182 179 168 162
309 312 315 316 320 320 316 311 303 296 289 265 241 242 259 282 302 324 338 259 282 258 229 216 208 224 237 251 236 187 198 201 192 184 163 167 184 181 197 194 198 225 203 203 208 203 225 221 202 205 225 232 236 247 233 205 248 283 141 204 281 293 288 283 295 304 331 354 109 126 65 311 254 254 275 269 265 280 267 263 273 216 190 186 183 180 172 168
310 314 315 318 324 320 317 314 306 312 306 259 251 267 282 283 290 329 5 275 264 259 232 210 197 210 225 235 220 180 182 213 239 188 158 174 186 164 209 205 189 221 217 214 209 213 239 226 192 196 215 227 228 239 223 152 103 349 331 212 243 282 289 291 306 330 11 333 282 138 5 307 269 235 256 275 282 284 281 271 261 254 258 194 184 189 182 171
312 314 315 320 324 323 324 312 300 321 309 251 259 293 335 308 303 345 1 278 273 240 181 173 172 192 206 215 205 173 169 207 239 205 161 177 190 181 209 203 185 214 212 221 219 210 239 235 213 199 204 217 218 223 190 127 112 342 261 236 225 245 267 279 290 306 358 264 266 128 162 272 305 278 257 263 262 272 334 342 287 270 26 29 52 188 188 169
312 312 315 318 322 328 328 294 310 321 291 283 319 322 7 355 341 351 7 277 287 201 157 142 165 179 183 182 170 160 181 192 207 214 176 177 192 195 206 203 183 214 220 221 222 220 222 229 247 226 195 188 175 209 170 121 131 216 238 253 245 228 236 249 255 261 236 242 303 22 110 258 306 284 274 273 272 348 45 38 15 36 47 39 34 36 149 164
308 311 313 314 316 313 295 286 306 309 258 312 347 352 357 353 348 7 73 116 255 162 140 129 167 170 172 165 159 173 231 186 171 213 180 174 192 188 203 227 207 212 229 217 217 231 209 208 234 243 195 160 150 176 170 144 174 221 221 241 255 236 234 244 236 261 299 316 326 333 30 4 279 271 290 287 326 23 33 56 52 45 43 37 30 30 63 127
307 310 309 313 314 304 293 277 270 280 293 318 345 343 341 347 351 52 73 178 215 153 140 136 125 165 177 161 165 199 236 210 166 196 162 168 201 206 200 238 241 239 237 219 225 246 219 199 209 217 188 164 157 159 169 184 205 218 219 240 269 275 269 264 126 58 8 31 292 282 136 189 273 296 328 334 42 27 360 37 59 59 51 42 30 30 50 80
305 306 307 315 312 314 332 284 256 283 323 326 329 328 332 339 5 103 92 232 227 172 148 122 115 175 183 168 177 203 227 242 185 169 154 159 200 218 246 247 250 264 249 222 231 251 260 242 212 206 188 172 162 163 191 217 225 217 215 232 274 293 304 13 64 61 40 2 252 269 254 194 276 325 1 24 30 26 21 24 38 55 55 44 32 36 55 71
304 303 305 307 298 305 326 286 255 304 338 337 329 319 325 342 89 128 157 229 243 155 131 137 155 171 175 172 181 191 216 247 194 155 167 156 176 207 259 261 249 271 274 247 243 249 254 261 234 192 81 136 138 154 207 233 235 213 185 152 23 335 5 23 7 36 48 270 262 282 287 253 243 299 323 14 27 34 47 37 29 43 50 44 33 39 54 60
304 302 299 293 283 277 267 236 219 348 355 352 339 315 2 87 146 227 232 287 247 174 168 179 176 174 175 180 190 183 202 238 192 163 172 159 167 191 190 207 199 190 278 275 243 245 245 249 236 177 108 100 106 100 308 279 249 122 67 66 92 323 355 24 337 357 222 252 237 232 262 262 199 200 330 14 29 32 42 41 36 39 41 38 33 38 47 45
305 303 295 286 272 258 252 247 261 300 337 344 334 289 108 123 181 228 239 294 194 181 185 168 171 177 175 186 197 179 193 218 179 168 169 159 170 182 187 216 206 153 214 237 219 235 249 264 255 215 164 114 114 126 272 280 206 143 159 133 132 167 100 219 242 224 227 238 222 197 165 162 154 27 354 24 34 32 44 43 41 42 40 39 36 39 45 36
306 301 294 287 271 258 257 259 264 279 315 322 312 160 143 178 237 216 228 272 240 221 231 168 171 180 175 193 201 174 188 208 172 163 159 159 174 183 186 217 225 199 191 227 220 184 201 247 242 232 196 132 140 168 186 225 215 183 187 157 152 168 164 203 214 192 218 254 283 252 101 144 167 246 310 41 46 39 49 45 42 40 37 41 38 36 41 32
309 304 301 292 277 265 258 254 250 254 291 302 263 181 197 194 263 220 228 275 254 237 232 155 161 180 176 198 200 175 182 188 167 164 161 165 179 190 183 201 221 225 179 173 248 208 205 232 207 210 203 161 165 192 195 222 267 222 183 158 179 190 174 208 219 189 165 79 344 13 49 19 156 204 332 50 41 37 46 41 38 33 30 40 37 28 29 19
316 315 309 284 273 272 254 232 219 216 247 270 181 218 225 214 258 244 255 301 287 252 243 104 92 7 170 213 238 188 190 181 163 162 166 179 178 186 195 190 203 217 199 172 227 207 204 262 210 194 202 171 169 186 183 187 235 259 196 189 208 199 178 203 259 243 111 93 275 171 102 4 93 15 9 41 36 32 35 29 29 28 30 38 36 25 16 9
319 317 304 269 268 272 231 189 181 192 223 247 203 234 253 259 261 266 326 347 329 302 321 69 90 275 190 214 266 204 183 168 166 164 173 187 184 190 199 193 188 206 212 192 232 244 192 258 262 195 237 190 172 180 182 180 186 214 254 223 203 196 190 164 239 309 82 108 260 148 128 124 95 323 346 32 35 29 26 18 18 23 29 33 31 28 17 13
314 307 287 266 256 239 190 161 167 185 212 234 249 258 271 269 267 285 12 6 333 327 8 56 177 217 203 214 237 182 151 144 169 165 163 174 179 209 208 205 189 198 210 200 214 283 183 261 274 212 245 215 161 159 194 205 194 194 233 259 115 160 218 212 181 228 126 151 270 97 106 81 78 265 342 36 38 34 31 22 18 22 29 29 23 23 21 25
303 297 278 262 226 197 170 156 166 190 220 220 248 250 239 249 254 284 48 8 325 343 14 5 324 272 257 267 267 154 141 142 156 134 113 142 229 315 352 354 182 184 232 204 200 208 152 106 286 239 238 206 147 130 200 229 211 209 257 309 89 154 184 211 205 195 144 157 209 93 79 347 312 346 17 44 49 49 48 37 30 29 32 32 23 18 18 28
285 264 284 280 175 166 161 159 173 203 213 222 238 241 257 261 246 71 53 15 336 347 359 352 354 346 315 310 329 89 128 122 115 109 86 42 70 16 10 10 9 13 13 33 51 31 139 125 220 276 309 231 172 164 181 185 181 218 241 245 274 265 192 199 222 191 143 154 179 124 90 294 303 12 29 40 38 46 61 59 53 42 34 30 22 18 22 31
268 238 290 313 142 149 151 158 191 212 217 253 255 256 277 284 95 78 60 21 341 291 252 338 338 333 317 342 356 354 76 99 86 82 62 37 78 62 7 1 354 6 22 29 36 29 17 139 173 283 339 302 227 184 189 175 77 68 31 233 306 351 165 193 280 255 156 147 163 137 134 276 317 1 38 46 35 36 55 65 66 54 41 30 18 21 29 34
257 197 288 334 139 145 149 170 211 216 219 252 253 252 267 267 4 59 65 97 265 264 228 280 314 321 326 4 10 1 28 45 29 69 64 48 83 66 351 355 2 32 63 34 356 10 8 91 102 46 271 272 306 5 91 56 71 75 49 19 44 45 67 102 271 276 34 48 58 99 110 177 312 21 69 67 47 48 50 59 68 59 51 40 23 28 37 38
187 218 288 282 156 154 163 226 211 232 234 253 262 265 290 321 334 38 52 81 190 259 348 324 306 333 11 20 14 21 42 46 70 97 91 48 56 19 9 23 19 30 62 27 339 351 355 43 55 4 306 317 337 1 34 38 50 68 46 20 42 43 74 134 176 218 74 12 6 89 81 183 143 75 100 96 60 53 44 45 54 49 48 44 32 35 43 41
299 202 297 278 182 172 203 243 211 235 238 250 264 276 332 348 332 30 24 310 199 96 11 335 334 350 24 25 13 20 47 67 85 88 82 60 32 360 34 52 41 34 49 37 315 335 349 29 62 51 358 342 351 354 10 19 22 46 37 12 22 19 13 64 25 57 68 341 358 114 112 182 130 79 71 66 51 47 38 33 39 37 37 40 37 35 37 37
307 141 334 281 214 196 237 276 263 295 274 267 282 298 314 316 346 22 356 313 347 72 54 341 357 358 12 26 11 345 1 86 96 89 84 77 39 19 51 63 53 50 65 69 48 102 96 70 69 95 120 194 129 13 319 335 340 7 27 15 14 9 9 36 57 62 67 335 21 92 128 143 116 78 64 57 49 44 34 27 28 27 29 36 41 37 33 33
315 144 167 278 228 213 261 280 273 292 290 291 316 303 282 268 51 33 352 332 10 37 26 350 353 358 13 25 15 345 344 11 26 101 117 102 73 33 65 87 82 63 51 28 8 35 94 64 43 101 141 172 171 174 173 89 5 19 29 22 20 12 17 62 86 86 143 86 41 66 140 126 97 69 66 59 52 48 35 27 24 19 22 29 37 41 36 33
314 282 205 146 224 239 278 286 264 256 267 262 239 237 247 256 52 51 5 350 20 26 16 323 294 220 92 70 52 352 338 1 1 22 106 92 59 12 26 84 98 100 82 29 351 14 85 39 4 54 103 176 166 156 119 63 47 52 52 36 28 21 31 59 72 115 156 108 76 228 136 112 86 62 63 55 53 54 41 34 27 20 22 26 32 38 35 30
192 277 282 338 281 210 216 247 235 235 244 237 237 330 254 215 105 67 326 317 5 35 55 332 305 303 276 165 124 85 322 18 16 31 77 73 50 17 1 7 40 87 92 42 344 29 95 52 343 44 14 262 141 126 118 91 64 56 58 55 45 34 38 52 53 50 84 97 120 128 98 92 82 66 59 52 52 53 48 42 36 28 27 27 30 35 32 28
97 292 295 315 297 230 230 235 219 217 229 217 99 308 273 120 116 125 9 350 323 218 116 328 287 295 301 284 129 118 124 87 51 26 56 73 98 68 22 360 11 47 88 88 326 11 80 144 181 148 213 248 54 77 100 94 75 56 49 53 58 50 48 52 44 42 65 78 85 90 84 76 71 64 58 54 50 50 49 45 39 34 31 29 33 35 32 28
85 348 313 337 328 293 263 248 225 204 210 58 64 236 241 66 138 164 126 92 24 6 50 314 285 317 326 350 86 98 110 116 116 121 82 92 115 106 87 140 352 2 69 122 177 249 98 191 201 179 172 90 74 78 87 90 82 66 44 37 48 50 42 45 40 33 53 75 82 89 86 74 69 70 63 55 48 47 46 42 39 35 31 32 35 36 33 30
304 304 300 342 314 273 242 224 198 151 106 69 182 218 145 155 201 166 122 116 96 73 317 27 44 15 354 28 60 60 61 93 98 81 350 92 147 168 154 166 179 201 79 122 137 164 152 175 220 154 104 97 105 103 103 99 85 67 40 21 32 53 48 43 43 31 28 57 85 85 79 71 74 77 68 57 51 51 46 41 41 37 33 35 37 36 35 32
334 301 280 207 272 278 249 199 170 130 128 203 160 89 55 168 131 87 85 31 62 169 66 58 62 25 11 40 48 30 26 48 50 10 338 342 335 320 39 182 180 163 144 125 104 125 126 120 175 138 99 110 135 132 134 118 79 54 15 359 19 79 85 63 45 34 24 22 68 71 62 67 74 76 74 65 56 54 49 40 40 40 37 37 37 36 35 30